TimeCDT,TemperatureF,Dew PointF,Humidity,Sea Level PressureIn,VisibilityMPH,Wind Direction,Wind SpeedMPH,Gust SpeedMPH,PrecipitationIn,Events,Conditions,WindDirDegrees,DateUTC
12:15 AM,64.8,62.6,93,29.67,10.0,ESE,4.6,-,N/A,,Clear,110,2013-06-13 05:15:00
12:35 AM,64.8,62.2,92,29.68,10.0,East,6.9,-,N/A,,Clear,80,2013-06-13 05:35:00
12:55 AM,64.8,62.6,93,29.69,10.0,NE,9.2,-,N/A,,Mostly Cloudy,50,2013-06-13 05:55:00
1:15 AM,64.6,62.6,93,29.71,7.0,North,13.8,-,N/A,,Mostly Cloudy,10,2013-06-13 06:15:00
1:35 AM,64.6,62.6,93,29.73,10.0,North,11.5,-,N/A,,Mostly Cloudy,10,2013-06-13 06:35:00
1:55 AM,64.6,62.1,92,29.76,10.0,North,6.9,-,N/A,Rain,Rain,10,2013-06-13 06:55:00
2:35 AM,64.4,61.9,92,29.78,10.0,NNE,5.8,-,N/A,Rain,Light Rain,20,2013-06-13 07:35:00
2:55 AM,64.4,62.1,92,29.78,10.0,North,11.5,-,N/A,,Overcast,10,2013-06-13 07:55:00
3:15 AM,64.6,62.1,92,29.78,10.0,North,10.4,-,N/A,,Overcast,360,2013-06-13 08:15:00
3:35 AM,64.6,62.1,92,29.79,10.0,North,12.7,-,N/A,,Overcast,360,2013-06-13 08:35:00
3:55 AM,64.6,62.2,92,29.79,10.0,North,11.5,-,N/A,,Overcast,350,2013-06-13 08:55:00
4:15 AM,64.4,61.7,91,29.81,10.0,North,16.1,19.6,N/A,,Overcast,350,2013-06-13 09:15:00
4:35 AM,63.7,61.0,91,29.81,10.0,North,17.3,23.0,N/A,,Overcast,360,2013-06-13 09:35:00
4:55 AM,63.0,59.7,89,29.82,10.0,North,12.7,-,N/A,,Overcast,360,2013-06-13 09:55:00
5:15 AM,62.1,58.3,87,29.83,10.0,North,10.4,-,N/A,,Mostly Cloudy,350,2013-06-13 10:15:00
5:35 AM,61.2,56.8,86,29.85,10.0,North,10.4,-,N/A,,Mostly Cloudy,360,2013-06-13 10:35:00
5:55 AM,60.8,56.5,86,29.85,10.0,North,10.4,-,N/A,,Scattered Clouds,360,2013-06-13 10:55:00
6:15 AM,60.8,56.3,85,29.86,10.0,North,11.5,-,N/A,,Clear,350,2013-06-13 11:15:00
6:35 AM,61.7,56.3,82,29.87,10.0,North,11.5,-,N/A,,Clear,350,2013-06-13 11:35:00
6:55 AM,62.6,56.5,80,29.88,10.0,North,10.4,-,N/A,,Clear,360,2013-06-13 11:55:00
7:15 AM,63.5,56.7,78,29.90,10.0,North,15.0,-,N/A,,Clear,350,2013-06-13 12:15:00
7:35 AM,64.0,56.8,77,29.91,10.0,North,11.5,-,N/A,,Clear,360,2013-06-13 12:35:00
7:55 AM,65.7,56.3,72,29.92,10.0,North,10.4,16.1,N/A,,Clear,360,2013-06-13 12:55:00
8:15 AM,66.6,55.2,67,29.92,10.0,North,11.5,-,N/A,,Clear,360,2013-06-13 13:15:00
8:35 AM,67.1,55.6,66,29.93,10.0,North,15.0,19.6,N/A,,Clear,10,2013-06-13 13:35:00
8:55 AM,68.0,55.9,65,29.94,10.0,NNE,11.5,-,N/A,,Clear,30,2013-06-13 13:55:00
9:15 AM,68.5,54.5,61,29.94,10.0,NE,13.8,-,N/A,,Clear,40,2013-06-13 14:15:00
9:35 AM,69.8,55.8,61,29.94,10.0,NE,11.5,-,N/A,,Clear,40,2013-06-13 14:35:00
9:55 AM,70.3,55.6,59,29.95,10.0,NE,13.8,19.6,N/A,,Clear,40,2013-06-13 14:55:00
10:15 AM,71.1,55.9,59,29.96,10.0,NNE,10.4,-,N/A,,Clear,30,2013-06-13 15:15:00
10:35 AM,72.1,56.5,58,29.97,10.0,North,11.5,-,N/A,,Clear,10,2013-06-13 15:35:00
10:55 AM,72.9,56.8,57,29.98,10.0,North,12.7,-,N/A,,Clear,350,2013-06-13 15:55:00
11:15 AM,73.4,57.0,56,29.98,10.0,North,10.4,-,N/A,,Clear,360,2013-06-13 16:15:00
11:35 AM,74.3,56.1,53,29.99,10.0,North,10.4,16.1,N/A,,Scattered Clouds,360,2013-06-13 16:35:00
11:55 AM,75.0,57.0,53,29.99,10.0,NW,11.5,-,N/A,,Scattered Clouds,320,2013-06-13 16:55:00
12:15 PM,75.2,54.5,48,29.99,10.0,North,15.0,-,N/A,,Scattered Clouds,350,2013-06-13 17:15:00
12:35 PM,75.2,56.5,52,29.99,10.0,North,10.4,-,N/A,,Scattered Clouds,350,2013-06-13 17:35:00
12:55 PM,76.3,57.6,52,29.99,10.0,North,11.5,16.1,N/A,,Clear,350,2013-06-13 17:55:00
1:15 PM,76.1,55.9,50,29.99,10.0,NNW,8.1,17.3,N/A,,Scattered Clouds,340,2013-06-13 18:15:00
1:35 PM,75.7,54.9,48,30.00,10.0,NNW,10.4,23.0,N/A,,Scattered Clouds,330,2013-06-13 18:35:00
1:55 PM,76.6,54.9,47,30.00,10.0,NNW,15.0,20.7,N/A,,Scattered Clouds,330,2013-06-13 18:55:00
2:15 PM,77.2,55.8,47,30.00,10.0,NNW,15.0,19.6,N/A,,Scattered Clouds,340,2013-06-13 19:15:00
2:35 PM,76.8,53.8,45,30.00,10.0,NW,15.0,-,N/A,,Mostly Cloudy,320,2013-06-13 19:35:00
2:55 PM,77.0,53.4,44,29.99,10.0,North,15.0,-,N/A,,Scattered Clouds,350,2013-06-13 19:55:00
3:15 PM,77.4,53.8,44,30.00,10.0,North,15.0,-,N/A,,Scattered Clouds,10,2013-06-13 20:15:00
3:35 PM,77.5,51.8,41,30.00,10.0,NNW,11.5,18.4,N/A,,Scattered Clouds,340,2013-06-13 20:35:00
3:55 PM,78.1,54.9,45,29.99,10.0,North,12.7,16.1,N/A,,Clear,360,2013-06-13 20:55:00
4:15 PM,77.5,53.2,43,29.99,10.0,North,6.9,-,N/A,,Scattered Clouds,350,2013-06-13 21:15:00
4:35 PM,78.6,54.1,43,29.99,10.0,North,12.7,-,N/A,,Scattered Clouds,360,2013-06-13 21:35:00
4:55 PM,78.3,54.5,44,29.99,10.0,North,11.5,-,N/A,,Scattered Clouds,360,2013-06-13 21:55:00
5:15 PM,78.1,53.2,42,29.99,10.0,North,11.5,16.1,N/A,,Scattered Clouds,360,2013-06-13 22:15:00
5:35 PM,76.6,54.7,46,29.99,10.0,North,8.1,-,N/A,,Clear,360,2013-06-13 22:35:00
5:55 PM,77.9,54.1,44,29.98,10.0,North,10.4,-,N/A,,Clear,10,2013-06-13 22:55:00
6:15 PM,77.0,55.0,47,29.99,10.0,North,10.4,-,N/A,,Clear,360,2013-06-13 23:15:00
6:35 PM,77.0,54.7,46,29.99,10.0,North,11.5,-,N/A,,Clear,10,2013-06-13 23:35:00
6:55 PM,76.8,55.0,47,30.00,10.0,North,8.1,-,N/A,,Mostly Cloudy,350,2013-06-13 23:55:00
7:15 PM,75.2,55.9,51,30.01,10.0,NNE,10.4,-,N/A,,Mostly Cloudy,20,2013-06-14 00:15:00
7:35 PM,74.8,57.6,55,30.02,10.0,NNE,9.2,-,N/A,,Overcast,30,2013-06-14 00:35:00
7:55 PM,72.7,58.5,61,30.02,10.0,North,5.8,-,N/A,,Scattered Clouds,360,2013-06-14 00:55:00
8:15 PM,71.6,57.9,62,30.02,10.0,North,5.8,-,N/A,,Clear,360,2013-06-14 01:15:00
8:35 PM,69.8,58.6,68,30.03,10.0,North,5.8,-,N/A,,Scattered Clouds,10,2013-06-14 01:35:00
8:55 PM,68.9,58.8,70,30.03,10.0,NE,9.2,-,N/A,,Scattered Clouds,40,2013-06-14 01:55:00
9:15 PM,68.2,59.0,72,30.04,10.0,East,9.2,-,N/A,,Clear,90,2013-06-14 02:15:00
9:35 PM,67.3,58.5,73,30.05,10.0,East,9.2,-,N/A,,Mostly Cloudy,80,2013-06-14 02:35:00
9:55 PM,66.6,57.6,73,30.05,10.0,East,6.9,-,N/A,,Overcast,90,2013-06-14 02:55:00
10:15 PM,65.1,57.7,77,30.05,10.0,East,5.8,-,N/A,,Mostly Cloudy,90,2013-06-14 03:15:00
10:35 PM,64.4,57.6,78,30.05,10.0,ESE,4.6,-,N/A,,Clear,110,2013-06-14 03:35:00
10:55 PM,62.2,58.1,86,30.05,10.0,ESE,4.6,-,N/A,,Clear,110,2013-06-14 03:55:00
11:15 PM,62.2,57.2,84,30.05,10.0,East,6.9,-,N/A,,Clear,90,2013-06-14 04:15:00
11:35 PM,61.7,56.8,84,30.06,10.0,East,6.9,-,N/A,,Clear,80,2013-06-14 04:35:00
11:55 PM,61.2,56.3,84,30.06,10.0,ENE,4.6,-,N/A,,Clear,70,2013-06-14 04:55:00